Time,TemperatureF,DewpointF,PressureIn,WindDirection,WindDirectionDegrees,WindSpeedMPH,WindSpeedGustMPH,Humidity,HourlyPrecipIn,Conditions,Clouds,dailyrainin,SoftwareType,DateUTC
2013-02-19 00:00:00,-8.0,-12.6,30.32,NNW,327,2.0,8.0,80,0.00,,,0.00,VWS V14.01,2013-02-19 06:00:00,
2013-02-19 00:01:00,-8.0,-12.6,30.33,NNW,327,3.0,3.0,80,0.00,,,0.00,VWS V14.01,2013-02-19 06:01:00,
2013-02-19 00:06:00,-8.2,-12.8,30.33,NNW,327,4.0,6.0,80,0.00,,,0.00,VWS V14.01,2013-02-19 06:06:00,
2013-02-19 00:11:00,-8.5,-13.1,30.33,NW,326,2.0,6.0,80,0.00,,,0.00,VWS V14.01,2013-02-19 06:11:00,
2013-02-19 00:15:00,-8.6,-13.2,30.33,NW,324,5.0,7.0,80,0.00,,,0.00,VWS V14.01,2013-02-19 06:15:00,
2013-02-19 00:16:00,-8.6,-13.2,30.33,NW,324,5.0,5.0,80,0.00,,,0.00,VWS V14.01,2013-02-19 06:16:00,
2013-02-19 00:21:00,-8.6,-13.2,30.34,NW,322,3.0,8.0,80,0.00,,,0.00,VWS V14.01,2013-02-19 06:21:00,
2013-02-19 00:26:00,-8.6,-13.2,30.34,NW,317,4.0,8.0,80,0.00,,,0.00,VWS V14.01,2013-02-19 06:26:00,
2013-02-19 00:30:00,-8.7,-13.3,30.34,NW,315,7.0,9.0,80,0.00,,,0.00,VWS V14.01,2013-02-19 06:30:00,
2013-02-19 00:31:00,-8.7,-13.3,30.34,NW,315,6.0,7.0,80,0.00,,,0.00,VWS V14.01,2013-02-19 06:31:00,
2013-02-19 00:36:00,-8.8,-13.4,30.35,NW,317,7.0,8.0,80,0.00,,,0.00,VWS V14.01,2013-02-19 06:36:00,
2013-02-19 00:41:00,-8.9,-13.5,30.35,NNW,330,6.0,9.0,80,0.00,,,0.00,VWS V14.01,2013-02-19 06:41:00,
2013-02-19 00:45:00,-9.0,-13.8,30.35,NW,325,4.0,9.0,79,0.00,,,0.00,VWS V14.01,2013-02-19 06:45:00,
2013-02-19 00:46:00,-9.0,-13.8,30.35,NW,324,5.0,5.0,79,0.00,,,0.00,VWS V14.01,2013-02-19 06:46:00,
2013-02-19 00:51:00,-9.0,-13.8,30.36,NW,318,2.0,9.0,79,0.00,,,0.00,VWS V14.01,2013-02-19 06:51:00,
2013-02-19 00:56:00,-9.0,-13.8,30.36,NW,321,8.0,9.0,79,0.00,,,0.00,VWS V14.01,2013-02-19 06:56:00,
2013-02-19 01:00:00,-9.1,-13.9,30.36,NW,321,6.0,9.0,79,0.00,,,0.00,VWS V14.01,2013-02-19 07:00:00,
2013-02-19 01:01:00,-9.1,-13.9,30.36,NNW,331,5.0,6.0,79,0.00,,,0.00,VWS V14.01,2013-02-19 07:01:00,
2013-02-19 01:06:00,-9.3,-14.4,30.36,NNW,331,2.0,6.0,78,0.00,,,0.00,VWS V14.01,2013-02-19 07:06:00,
2013-02-19 01:11:00,-9.6,-14.6,30.36,NNW,332,4.0,7.0,78,0.00,,,0.00,VWS V14.01,2013-02-19 07:11:00,
2013-02-19 01:15:00,-9.8,-14.8,30.37,NW,325,3.0,8.0,78,0.00,,,0.00,VWS V14.01,2013-02-19 07:15:00,
2013-02-19 01:16:00,-9.8,-14.8,30.37,NW,325,2.0,3.0,78,0.00,,,0.00,VWS V14.01,2013-02-19 07:16:00,
2013-02-19 01:21:00,-9.9,-15.2,30.37,NW,321,9.0,9.0,77,0.00,,,0.00,VWS V14.01,2013-02-19 07:21:00,
2013-02-19 01:26:00,-9.7,-15.0,30.37,NW,319,4.0,9.0,77,0.00,,,0.00,VWS V14.01,2013-02-19 07:26:00,
2013-02-19 01:30:00,-9.7,-15.0,30.37,NW,316,2.0,9.0,77,0.00,,,0.00,VWS V14.01,2013-02-19 07:30:00,
2013-02-19 01:31:00,-9.7,-15.0,30.37,NW,316,3.0,3.0,77,0.00,,,0.00,VWS V14.01,2013-02-19 07:31:00,
2013-02-19 01:36:00,-9.7,-15.0,30.37,NW,316,4.0,6.0,77,0.00,,,0.00,VWS V14.01,2013-02-19 07:36:00,
2013-02-19 01:41:00,-9.7,-15.3,30.37,NW,316,6.0,6.0,76,0.00,,,0.00,VWS V14.01,2013-02-19 07:41:00,
2013-02-19 01:45:00,-9.8,-15.4,30.37,NW,316,2.0,6.0,76,0.00,,,0.00,VWS V14.01,2013-02-19 07:45:00,
2013-02-19 01:46:00,-9.8,-15.4,30.37,NW,316,2.0,2.0,76,0.00,,,0.00,VWS V14.01,2013-02-19 07:46:00,
2013-02-19 01:51:00,-9.8,-15.4,30.37,NW,311,8.0,8.0,76,0.00,,,0.00,VWS V14.01,2013-02-19 07:51:00,
2013-02-19 01:56:00,-9.9,-15.4,30.38,NW,306,5.0,10.0,76,0.00,,,0.00,VWS V14.01,2013-02-19 07:56:00,
2013-02-19 02:00:00,-10.0,-15.8,30.38,NW,316,7.0,11.0,75,0.00,,,0.00,VWS V14.01,2013-02-19 08:00:00,
2013-02-19 02:01:00,-10.0,-15.8,30.38,NW,316,8.0,8.0,75,0.00,,,0.00,VWS V14.01,2013-02-19 08:01:00,
2013-02-19 02:06:00,-10.1,-15.9,30.38,NW,312,6.0,9.0,75,0.00,,,0.00,VWS V14.01,2013-02-19 08:06:00,
2013-02-19 02:11:00,-10.2,-16.0,30.38,NW,317,8.0,10.0,75,0.00,,,0.00,VWS V14.01,2013-02-19 08:11:00,
2013-02-19 02:15:00,-10.4,-16.2,30.38,NW,304,4.0,10.0,75,0.00,,,0.00,VWS V14.01,2013-02-19 08:15:00,
2013-02-19 02:16:00,-10.4,-16.2,30.38,NW,318,5.0,6.0,75,0.00,,,0.00,VWS V14.01,2013-02-19 08:16:00,
2013-02-19 02:21:00,-10.6,-16.4,30.38,NW,325,6.0,8.0,75,0.00,,,0.00,VWS V14.01,2013-02-19 08:21:00,
2013-02-19 02:26:00,-10.6,-16.4,30.39,NW,324,5.0,8.0,75,0.00,,,0.00,VWS V14.01,2013-02-19 08:26:00,
2013-02-19 02:30:00,-10.8,-16.6,30.39,NW,321,2.0,8.0,75,0.00,,,0.00,VWS V14.01,2013-02-19 08:30:00,
2013-02-19 02:31:00,-10.8,-16.6,30.39,NW,321,4.0,4.0,75,0.00,,,0.00,VWS V14.01,2013-02-19 08:31:00,
2013-02-19 02:36:00,-10.8,-16.6,30.39,NW,321,5.0,6.0,75,0.00,,,0.00,VWS V14.01,2013-02-19 08:36:00,
2013-02-19 02:41:00,-10.9,-16.7,30.39,NW,315,3.0,8.0,75,0.00,,,0.00,VWS V14.01,2013-02-19 08:41:00,
2013-02-19 02:45:00,-11.1,-16.9,30.38,NW,315,6.0,8.0,75,0.00,,,0.00,VWS V14.01,2013-02-19 08:45:00,
2013-02-19 02:46:00,-11.1,-16.9,30.38,NW,315,4.0,6.0,75,0.00,,,0.00,VWS V14.01,2013-02-19 08:46:00,
2013-02-19 02:51:00,-11.1,-16.9,30.38,NW,315,6.0,7.0,75,0.00,,,0.00,VWS V14.01,2013-02-19 08:51:00,
2013-02-19 02:56:00,-11.1,-16.9,30.38,NW,315,6.0,7.0,75,0.00,,,0.00,VWS V14.01,2013-02-19 08:56:00,
2013-02-19 03:00:00,-11.1,-16.9,30.38,NW,315,6.0,7.0,75,0.00,,,0.00,VWS V14.01,2013-02-19 09:00:00,
2013-02-19 03:01:00,-11.1,-16.9,30.39,NW,315,6.0,7.0,75,0.00,,,0.00,VWS V14.01,2013-02-19 09:01:00,
2013-02-19 03:06:00,-11.1,-16.9,30.38,NW,315,6.0,6.0,75,0.00,,,0.00,VWS V14.01,2013-02-19 09:06:00,
2013-02-19 03:11:00,-11.1,-16.9,30.38,NW,315,6.0,6.0,75,0.00,,,0.00,VWS V14.01,2013-02-19 09:11:00,
2013-02-19 03:15:00,-11.1,-16.9,30.39,NW,315,6.0,6.0,75,0.00,,,0.00,VWS V14.01,2013-02-19 09:15:00,
2013-02-19 03:16:00,-11.1,-16.9,30.38,NW,315,6.0,6.0,75,0.00,,,0.00,VWS V14.01,2013-02-19 09:16:00,
2013-02-19 03:21:00,-11.1,-16.9,30.39,NW,315,6.0,6.0,75,0.00,,,0.00,VWS V14.01,2013-02-19 09:21:00,
2013-02-19 03:26:00,-11.1,-16.9,30.39,NW,315,6.0,6.0,75,0.00,,,0.00,VWS V14.01,2013-02-19 09:26:00,
2013-02-19 03:30:00,-11.1,-16.9,30.39,NW,315,6.0,6.0,75,0.00,,,0.00,VWS V14.01,2013-02-19 09:30:00,
2013-02-19 03:31:00,-11.1,-16.9,30.39,NW,315,6.0,6.0,75,0.00,,,0.00,VWS V14.01,2013-02-19 09:31:00,
2013-02-19 03:36:00,-11.1,-16.9,30.39,NW,315,6.0,6.0,75,0.00,,,0.00,VWS V14.01,2013-02-19 09:36:00,
2013-02-19 03:41:00,-11.1,-16.9,30.39,NW,315,6.0,6.0,75,0.00,,,0.00,VWS V14.01,2013-02-19 09:41:00,
2013-02-19 03:45:00,-11.1,-16.9,30.39,NW,315,6.0,6.0,75,0.00,,,0.00,VWS V14.01,2013-02-19 09:45:00,
2013-02-19 03:46:00,-11.1,-16.9,30.39,NW,315,6.0,6.0,75,0.00,,,0.00,VWS V14.01,2013-02-19 09:46:00,
2013-02-19 03:50:00,-11.1,-16.9,30.39,NW,315,6.0,6.0,75,0.00,,,0.00,VWS V14.01,2013-02-19 09:50:00,
2013-02-19 03:55:00,-11.1,-16.9,30.39,NW,315,6.0,6.0,75,0.00,,,0.00,VWS V14.01,2013-02-19 09:55:00,
2013-02-19 04:00:00,-11.1,-16.9,30.38,NW,315,6.0,6.0,75,0.00,,,0.00,VWS V14.01,2013-02-19 10:00:00,
2013-02-19 04:05:00,-11.1,-16.9,30.38,NW,315,6.0,6.0,75,0.00,,,0.00,VWS V14.01,2013-02-19 10:05:00,
2013-02-19 04:11:00,-11.1,-16.9,30.38,NW,315,6.0,6.0,75,0.00,,,0.00,VWS V14.01,2013-02-19 10:11:00,
2013-02-19 04:15:00,-11.1,-16.9,30.38,NW,315,6.0,6.0,75,0.00,,,0.00,VWS V14.01,2013-02-19 10:15:00,
2013-02-19 04:20:00,-11.1,-16.9,30.38,NW,315,6.0,6.0,75,0.00,,,0.00,VWS V14.01,2013-02-19 10:20:00,
2013-02-19 04:25:00,-13.3,-19.0,30.38,NW,315,5.0,7.0,75,0.00,,,0.00,VWS V14.01,2013-02-19 10:25:00,
2013-02-19 04:30:00,-13.5,-19.2,30.38,NW,316,4.0,4.0,75,0.00,,,0.00,VWS V14.01,2013-02-19 10:30:00,
2013-02-19 04:36:00,-13.8,-19.5,30.39,NW,316,1.0,7.0,75,0.00,,,0.00,VWS V14.01,2013-02-19 10:36:00,
2013-02-19 04:41:00,-14.0,-19.7,30.39,NW,315,3.0,7.0,75,0.00,,,0.00,VWS V14.01,2013-02-19 10:41:00,
2013-02-19 04:45:00,-14.4,-20.1,30.39,NW,317,1.0,7.0,75,0.00,,,0.00,VWS V14.01,2013-02-19 10:45:00,
2013-02-19 04:46:00,-14.4,-20.1,30.39,NW,317,2.0,2.0,75,0.00,,,0.00,VWS V14.01,2013-02-19 10:46:00,
2013-02-19 04:51:00,-14.6,-20.3,30.39,NW,317,6.0,7.0,75,0.00,,,0.00,VWS V14.01,2013-02-19 10:51:00,
2013-02-19 04:56:00,-14.3,-19.7,30.39,NW,317,3.0,8.0,76,0.00,,,0.00,VWS V14.01,2013-02-19 10:56:00,
2013-02-19 05:00:00,-14.1,-19.5,30.39,NW,317,3.0,8.0,76,0.00,,,0.00,VWS V14.01,2013-02-19 11:00:00,
2013-02-19 05:01:00,-14.1,-19.5,30.40,NW,317,2.0,3.0,76,0.00,,,0.00,VWS V14.01,2013-02-19 11:01:00,
2013-02-19 05:06:00,-14.0,-19.4,30.40,NW,317,4.0,7.0,76,0.00,,,0.00,VWS V14.01,2013-02-19 11:06:00,
2013-02-19 05:11:00,-14.3,-20.0,30.40,NW,317,4.0,7.0,75,0.00,,,0.00,VWS V14.01,2013-02-19 11:11:00,
2013-02-19 05:15:00,-14.5,-20.2,30.40,NW,317,3.0,7.0,75,0.00,,,0.00,VWS V14.01,2013-02-19 11:15:00,
2013-02-19 05:16:00,-14.5,-20.2,30.40,NW,317,3.0,3.0,75,0.00,,,0.00,VWS V14.01,2013-02-19 11:16:00,
2013-02-19 05:21:00,-14.7,-20.1,30.40,NW,317,2.0,6.0,76,0.00,,,0.00,VWS V14.01,2013-02-19 11:21:00,
2013-02-19 05:26:00,-15.1,-20.5,30.40,NW,317,1.0,6.0,76,0.00,,,0.00,VWS V14.01,2013-02-19 11:26:00,
2013-02-19 05:30:00,-15.0,-20.4,30.40,NW,317,2.0,2.0,76,0.00,,,0.00,VWS V14.01,2013-02-19 11:30:00,
2013-02-19 05:36:00,-15.1,-20.5,30.40,NW,317,2.0,5.0,76,0.00,,,0.00,VWS V14.01,2013-02-19 11:36:00,
2013-02-19 05:40:00,-15.7,-21.1,30.40,NW,317,2.0,5.0,76,0.00,,,0.00,VWS V14.01,2013-02-19 11:40:00,
2013-02-19 05:45:00,-16.0,-21.4,30.40,NW,317,2.0,5.0,76,0.00,,,0.00,VWS V14.01,2013-02-19 11:45:00,
2013-02-19 05:46:00,-16.0,-21.4,30.40,NW,317,2.0,2.0,76,0.00,,,0.00,VWS V14.01,2013-02-19 11:46:00,
2013-02-19 05:50:00,-15.8,-20.9,30.41,NW,317,5.0,5.0,77,0.00,,,0.00,VWS V14.01,2013-02-19 11:50:00,
2013-02-19 05:55:00,-15.7,-20.8,30.41,NW,317,2.0,6.0,77,0.00,,,0.00,VWS V14.01,2013-02-19 11:55:00,
2013-02-19 06:00:00,-15.8,-20.9,30.41,NW,317,6.0,7.0,77,0.00,,,0.00,VWS V14.01,2013-02-19 12:00:00,
2013-02-19 06:05:00,-15.8,-20.9,30.41,NW,317,4.0,7.0,77,0.00,,,0.00,VWS V14.01,2013-02-19 12:05:00,
2013-02-19 06:10:00,-15.8,-20.9,30.41,NW,318,4.0,7.0,77,0.00,,,0.00,VWS V14.01,2013-02-19 12:10:00,
2013-02-19 06:15:00,-15.8,-20.9,30.41,NW,318,2.0,2.0,77,0.00,,,0.00,VWS V14.01,2013-02-19 12:15:00,
2013-02-19 06:20:00,-16.0,-21.1,30.42,NW,318,2.0,6.0,77,0.00,,,0.00,VWS V14.01,2013-02-19 12:20:00,
2013-02-19 06:25:00,-16.1,-21.2,30.42,NW,318,1.0,6.0,77,0.00,,,0.00,VWS V14.01,2013-02-19 12:25:00,
2013-02-19 06:30:00,-16.2,-21.3,30.43,NW,318,2.0,2.0,77,0.00,,,0.00,VWS V14.01,2013-02-19 12:30:00,
2013-02-19 06:35:00,-16.6,-21.7,30.43,NW,318,2.0,4.0,77,0.00,,,0.00,VWS V14.01,2013-02-19 12:35:00,
2013-02-19 06:40:00,-16.7,-21.8,30.43,NW,318,1.0,4.0,77,0.00,,,0.00,VWS V14.01,2013-02-19 12:40:00,
2013-02-19 06:45:00,-16.9,-22.0,30.43,NW,318,0.0,1.0,77,0.00,,,0.00,VWS V14.01,2013-02-19 12:45:00,
2013-02-19 06:50:00,-17.0,-21.9,30.43,NW,318,0.0,1.0,78,0.00,,,0.00,VWS V14.01,2013-02-19 12:50:00,
2013-02-19 06:55:00,-17.1,-22.0,30.43,NW,318,1.0,1.0,78,0.00,,,0.00,VWS V14.01,2013-02-19 12:55:00,
2013-02-19 07:00:00,-16.9,-21.8,30.43,NW,318,1.0,3.0,78,0.00,,,0.00,VWS V14.01,2013-02-19 13:00:00,
2013-02-19 07:05:00,-16.5,-21.4,30.43,NW,318,2.0,3.0,78,0.00,,,0.00,VWS V14.01,2013-02-19 13:05:00,
2013-02-19 07:10:00,-16.3,-20.9,30.43,NW,318,3.0,3.0,79,0.00,,,0.00,VWS V14.01,2013-02-19 13:10:00,
2013-02-19 07:15:00,-16.0,-20.6,30.44,NW,318,2.0,4.0,79,0.00,,,0.00,VWS V14.01,2013-02-19 13:15:00,
2013-02-19 07:20:00,-15.9,-20.8,30.44,NW,318,3.0,6.0,78,0.00,,,0.00,VWS V14.01,2013-02-19 13:20:00,
2013-02-19 07:25:00,-15.9,-20.8,30.45,NW,318,3.0,6.0,78,0.00,,,0.00,VWS V14.01,2013-02-19 13:25:00,
2013-02-19 07:30:00,-15.8,-20.7,30.45,NW,318,3.0,6.0,78,0.00,,,0.00,VWS V14.01,2013-02-19 13:30:00,
2013-02-19 07:35:00,-15.8,-20.7,30.45,NW,317,4.0,8.0,78,0.00,,,0.00,VWS V14.01,2013-02-19 13:35:00,
2013-02-19 07:40:00,-16.0,-21.1,30.45,NW,317,4.0,8.0,77,0.00,,,0.00,VWS V14.01,2013-02-19 13:40:00,
2013-02-19 07:45:00,-16.0,-21.1,30.45,NW,317,5.0,8.0,77,0.00,,,0.00,VWS V14.01,2013-02-19 13:45:00,
2013-02-19 07:50:00,-16.6,-21.7,30.45,NW,317,4.0,6.0,77,0.00,,,0.00,VWS V14.01,2013-02-19 13:50:00,
2013-02-19 07:55:00,-17.1,-22.2,30.45,NW,317,3.0,6.0,77,0.00,,,0.00,VWS V14.01,2013-02-19 13:55:00,
2013-02-19 08:00:00,-17.4,-22.5,30.45,NW,317,2.0,6.0,77,0.00,,,0.00,VWS V14.01,2013-02-19 14:00:00,
2013-02-19 08:05:00,-17.7,-22.8,30.46,NW,317,3.0,4.0,77,0.00,,,0.00,VWS V14.01,2013-02-19 14:05:00,
2013-02-19 08:10:00,-17.6,-22.5,30.46,NW,317,3.0,4.0,78,0.00,,,0.00,VWS V14.01,2013-02-19 14:10:00,
2013-02-19 08:15:00,-17.5,-22.4,30.46,NW,317,3.0,4.0,78,0.00,,,0.00,VWS V14.01,2013-02-19 14:15:00,
2013-02-19 08:20:00,-17.4,-22.2,30.46,NW,317,4.0,5.0,78,0.00,,,0.00,VWS V14.01,2013-02-19 14:20:00,
2013-02-19 08:25:00,-17.2,-22.1,30.46,NW,317,3.0,5.0,78,0.00,,,0.00,VWS V14.01,2013-02-19 14:25:00,
2013-02-19 08:30:00,-17.1,-22.0,30.47,NW,317,4.0,5.0,78,0.00,,,0.00,VWS V14.01,2013-02-19 14:30:00,
2013-02-19 08:35:00,-17.1,-22.0,30.46,NW,317,2.0,4.0,78,0.00,,,0.00,VWS V14.01,2013-02-19 14:35:00,
2013-02-19 08:40:00,-16.8,-21.7,30.47,NW,317,2.0,4.0,78,0.00,,,0.00,VWS V14.01,2013-02-19 14:40:00,
2013-02-19 08:45:00,-16.7,-21.6,30.48,NW,317,4.0,5.0,78,0.00,,,0.00,VWS V14.01,2013-02-19 14:45:00,
2013-02-19 08:50:00,-16.6,-21.5,30.48,NW,317,3.0,5.0,78,0.00,,,0.00,VWS V14.01,2013-02-19 14:50:00,
2013-02-19 08:55:00,-16.4,-21.3,30.48,NW,317,4.0,5.0,78,0.00,,,0.00,VWS V14.01,2013-02-19 14:55:00,
2013-02-19 09:00:00,-16.5,-21.6,30.48,NW,317,5.0,5.0,77,0.00,,,0.00,VWS V14.01,2013-02-19 15:00:00,
2013-02-19 09:05:00,-16.5,-21.6,30.48,NW,317,5.0,5.0,77,0.00,,,0.00,VWS V14.01,2013-02-19 15:05:00,
2013-02-19 09:10:00,-16.3,-21.4,30.48,NW,317,5.0,5.0,77,0.00,,,0.00,VWS V14.01,2013-02-19 15:10:00,
2013-02-19 09:15:00,-16.3,-21.4,30.48,NW,317,4.0,5.0,77,0.00,,,0.00,VWS V14.01,2013-02-19 15:15:00,
2013-02-19 09:20:00,-15.9,-21.0,30.48,NW,317,4.0,5.0,77,0.00,,,0.00,VWS V14.01,2013-02-19 15:20:00,
2013-02-19 09:25:00,-15.4,-20.5,30.49,NW,317,2.0,5.0,77,0.00,,,0.00,VWS V14.01,2013-02-19 15:25:00,
2013-02-19 09:30:00,-15.0,-20.2,30.49,NW,317,2.0,5.0,77,0.00,,,0.00,VWS V14.01,2013-02-19 15:30:00,
2013-02-19 09:35:00,-14.6,-19.8,30.50,NW,317,3.0,6.0,77,0.00,,,0.00,VWS V14.01,2013-02-19 15:35:00,
2013-02-19 09:40:00,-14.4,-19.6,30.50,NW,317,5.0,6.0,77,0.00,,,0.00,VWS V14.01,2013-02-19 15:40:00,
2013-02-19 09:45:00,-14.0,-19.2,30.50,NW,317,5.0,7.0,77,0.00,,,0.00,VWS V14.01,2013-02-19 15:45:00,
2013-02-19 09:50:00,-13.8,-19.2,30.49,NW,317,5.0,7.0,76,0.00,,,0.00,VWS V14.01,2013-02-19 15:50:00,
2013-02-19 09:55:00,-13.4,-18.9,30.49,NW,320,2.0,8.0,76,0.00,,,0.00,VWS V14.01,2013-02-19 15:55:00,
2013-02-19 10:00:00,-12.7,-17.9,30.49,NW,320,2.0,8.0,77,0.00,,,0.00,VWS V14.01,2013-02-19 16:00:00,
2013-02-19 10:05:00,-12.5,-18.0,30.49,NW,320,3.0,6.0,76,0.00,,,0.00,VWS V14.01,2013-02-19 16:05:00,
2013-02-19 10:10:00,-12.6,-18.3,30.50,NW,320,4.0,6.0,75,0.00,,,0.00,VWS V14.01,2013-02-19 16:10:00,
2013-02-19 10:15:00,-12.7,-18.4,30.50,NW,321,5.0,7.0,75,0.00,,,0.00,VWS V14.01,2013-02-19 16:15:00,
2013-02-19 10:20:00,-12.4,-18.1,30.50,NW,321,4.0,6.0,75,0.00,,,0.00,VWS V14.01,2013-02-19 16:20:00,
2013-02-19 10:25:00,-12.1,-17.9,30.50,NW,321,5.0,6.0,75,0.00,,,0.00,VWS V14.01,2013-02-19 16:25:00,
2013-02-19 10:30:00,-11.7,-17.5,30.50,NW,321,2.0,6.0,75,0.00,,,0.00,VWS V14.01,2013-02-19 16:30:00,
2013-02-19 10:35:00,-11.8,-17.8,30.50,NW,321,5.0,7.0,74,0.00,,,0.00,VWS V14.01,2013-02-19 16:35:00,
2013-02-19 10:40:00,-11.7,-17.7,30.50,NW,317,3.0,8.0,74,0.00,,,0.00,VWS V14.01,2013-02-19 16:40:00,
2013-02-19 10:45:00,-11.1,-16.9,30.50,NW,317,2.0,8.0,75,0.00,,,0.00,VWS V14.01,2013-02-19 16:45:00,
2013-02-19 10:50:00,-10.4,-16.2,30.50,NW,317,2.0,4.0,75,0.00,,,0.00,VWS V14.01,2013-02-19 16:50:00,
2013-02-19 10:55:00,-9.6,-15.4,30.49,NW,317,2.0,4.0,75,0.00,,,0.00,VWS V14.01,2013-02-19 16:55:00,
2013-02-19 11:00:00,-9.3,-15.4,30.49,NW,317,3.0,4.0,74,0.00,,,0.00,VWS V14.01,2013-02-19 17:00:00,
2013-02-19 11:05:00,-8.7,-14.8,30.49,NW,318,0.0,5.0,74,0.00,,,0.00,VWS V14.01,2013-02-19 17:05:00,
2013-02-19 11:10:00,-8.6,-15.0,30.49,NW,318,2.0,5.0,73,0.00,,,0.00,VWS V14.01,2013-02-19 17:10:00,
2013-02-19 11:15:00,-7.4,-13.6,30.49,NW,320,4.0,5.0,74,0.00,,,0.00,VWS V14.01,2013-02-19 17:15:00,
2013-02-19 11:20:00,-6.8,-13.2,30.50,NW,323,2.0,4.0,73,0.00,,,0.00,VWS V14.01,2013-02-19 17:20:00,
2013-02-19 11:25:00,-6.3,-12.8,30.50,NW,323,2.0,4.0,73,0.00,,,0.00,VWS V14.01,2013-02-19 17:25:00,
2013-02-19 11:30:00,-5.8,-12.6,30.50,NNW,327,1.0,5.0,72,0.00,,,0.00,VWS V14.01,2013-02-19 17:30:00,
2013-02-19 11:35:00,-5.4,-12.2,30.50,NNW,327,1.0,3.0,72,0.00,,,0.00,VWS V14.01,2013-02-19 17:35:00,
2013-02-19 11:40:00,-5.2,-12.3,30.51,NNW,327,1.0,3.0,71,0.00,,,0.00,VWS V14.01,2013-02-19 17:40:00,
2013-02-19 11:45:00,-5.1,-12.4,30.51,NNW,328,3.0,4.0,70,0.00,,,0.00,VWS V14.01,2013-02-19 17:45:00,
2013-02-19 11:50:00,-5.1,-12.4,30.51,NNW,328,1.0,4.0,70,0.00,,,0.00,VWS V14.01,2013-02-19 17:50:00,
2013-02-19 11:55:00,-4.8,-12.2,30.51,NNW,335,1.0,5.0,70,0.00,,,0.00,VWS V14.01,2013-02-19 17:55:00,
2013-02-19 12:00:00,-4.8,-12.4,30.51,NNW,335,2.0,5.0,69,0.00,,,0.00,VWS V14.01,2013-02-19 18:00:00,
2013-02-19 12:05:00,-5.3,-13.2,30.51,NNW,335,1.0,3.0,68,0.00,,,0.00,VWS V14.01,2013-02-19 18:05:00,
2013-02-19 12:10:00,-5.5,-13.4,30.51,NNW,335,1.0,3.0,68,0.00,,,0.00,VWS V14.01,2013-02-19 18:10:00,
2013-02-19 12:15:00,-5.3,-12.9,30.51,NNW,335,4.0,4.0,69,0.00,,,0.00,VWS V14.01,2013-02-19 18:15:00,
2013-02-19 12:20:00,-4.7,-12.4,30.50,NNW,335,4.0,4.0,69,0.00,,,0.00,VWS V14.01,2013-02-19 18:20:00,
2013-02-19 12:25:00,-4.2,-11.9,30.50,NNW,335,0.0,4.0,69,0.00,,,0.00,VWS V14.01,2013-02-19 18:25:00,
2013-02-19 12:30:00,-3.9,-11.6,30.50,NNW,335,2.0,4.0,69,0.00,,,0.00,VWS V14.01,2013-02-19 18:30:00,
2013-02-19 12:35:00,-3.9,-11.6,30.50,NNW,335,2.0,2.0,69,0.00,,,0.00,VWS V14.01,2013-02-19 18:35:00,
2013-02-19 12:40:00,-4.2,-12.5,30.50,NNW,335,2.0,5.0,67,0.00,,,0.00,VWS V14.01,2013-02-19 18:40:00,
2013-02-19 12:45:00,-5.0,-13.2,30.50,NNW,335,2.0,5.0,67,0.00,,,0.00,VWS V14.01,2013-02-19 18:45:00,
2013-02-19 12:50:00,-5.3,-13.2,30.50,NNW,335,6.0,6.0,68,0.00,,,0.00,VWS V14.01,2013-02-19 18:50:00,
2013-02-19 12:55:00,-5.4,-13.3,30.51,NNW,331,5.0,6.0,68,0.00,,,0.00,VWS V14.01,2013-02-19 18:55:00,
2013-02-19 13:00:00,-5.4,-13.3,30.51,NNW,331,5.0,6.0,68,0.00,,,0.00,VWS V14.01,2013-02-19 19:00:00,
2013-02-19 13:05:00,-5.4,-13.3,30.51,NNW,331,5.0,5.0,68,0.00,,,0.00,VWS V14.01,2013-02-19 19:05:00,
2013-02-19 13:10:00,-5.4,-13.3,30.50,NNW,331,5.0,5.0,68,0.00,,,0.00,VWS V14.01,2013-02-19 19:10:00,
2013-02-19 13:15:00,-5.4,-13.3,30.50,NNW,331,5.0,5.0,68,0.00,,,0.00,VWS V14.01,2013-02-19 19:15:00,
2013-02-19 13:20:00,-5.4,-13.3,30.50,NNW,331,5.0,5.0,68,0.00,,,0.00,VWS V14.01,2013-02-19 19:20:00,
2013-02-19 13:25:00,-5.4,-13.3,30.49,NNW,331,5.0,5.0,68,0.00,,,0.00,VWS V14.01,2013-02-19 19:25:00,
2013-02-19 13:30:00,-5.4,-13.3,30.49,NNW,331,5.0,5.0,68,0.00,,,0.00,VWS V14.01,2013-02-19 19:30:00,
2013-02-19 13:35:00,-2.8,-10.2,30.49,NW,312,0.0,5.0,70,0.00,,,0.00,VWS V14.01,2013-02-19 19:35:00,
2013-02-19 13:40:00,-1.8,-9.3,30.49,NNW,335,2.0,5.0,70,0.00,,,0.00,VWS V14.01,2013-02-19 19:40:00,
2013-02-19 13:45:00,-0.7,-8.8,30.49,NNW,335,4.0,5.0,68,0.00,,,0.00,VWS V14.01,2013-02-19 19:45:00,
2013-02-19 13:50:00,-0.3,-9.3,30.48,NE,54,5.0,7.0,65,0.00,,,0.00,VWS V14.01,2013-02-19 19:50:00,
2013-02-19 13:55:00,-0.3,-9.3,30.48,ENE,59,4.0,7.0,65,0.00,,,0.00,VWS V14.01,2013-02-19 19:55:00,
2013-02-19 14:00:00,-0.8,-10.8,30.48,ESE,110,3.0,11.0,62,0.00,,,0.00,VWS V14.01,2013-02-19 20:00:00,
2013-02-19 14:05:00,-1.2,-11.5,30.48,ESE,123,4.0,10.0,61,0.00,,,0.00,VWS V14.01,2013-02-19 20:05:00,
2013-02-19 14:10:00,-1.4,-11.7,30.48,East,86,8.0,10.0,61,0.00,,,0.00,VWS V14.01,2013-02-19 20:10:00,
2013-02-19 14:15:00,-1.4,-11.3,30.47,East,88,7.0,11.0,62,0.00,,,0.00,VWS V14.01,2013-02-19 20:15:00,
2013-02-19 14:20:00,-1.5,-11.4,30.47,East,91,7.0,9.0,62,0.00,,,0.00,VWS V14.01,2013-02-19 20:20:00,
2013-02-19 14:25:00,-1.5,-11.4,30.47,East,91,7.0,9.0,62,0.00,,,0.00,VWS V14.01,2013-02-19 20:25:00,
2013-02-19 14:30:00,-1.3,-11.2,30.47,ESE,104,4.0,10.0,62,0.00,,,0.00,VWS V14.01,2013-02-19 20:30:00,
2013-02-19 14:35:00,-1.4,-12.0,30.48,ESE,115,7.0,11.0,60,0.00,,,0.00,VWS V14.01,2013-02-19 20:35:00,
2013-02-19 14:40:00,-1.3,-12.6,30.47,East,90,5.0,11.0,58,0.00,,,0.00,VWS V14.01,2013-02-19 20:40:00,
2013-02-19 14:45:00,-1.5,-13.5,30.47,East,85,5.0,11.0,56,0.00,,,0.00,VWS V14.01,2013-02-19 20:45:00,
2013-02-19 14:50:00,-1.8,-14.1,30.47,East,85,7.0,15.0,55,0.00,,,0.00,VWS V14.01,2013-02-19 20:50:00,
2013-02-19 14:55:00,-1.8,-14.5,30.47,East,84,6.0,15.0,54,0.00,,,0.00,VWS V14.01,2013-02-19 20:55:00,
2013-02-19 15:00:00,-1.7,-14.4,30.47,ENE,74,7.0,15.0,54,0.00,,,0.00,VWS V14.01,2013-02-19 21:00:00,
2013-02-19 15:05:00,-1.8,-14.5,30.47,East,89,6.0,10.0,54,0.00,,,0.00,VWS V14.01,2013-02-19 21:05:00,
2013-02-19 15:10:00,-1.8,-14.5,30.47,ESE,105,4.0,12.0,54,0.00,,,0.00,VWS V14.01,2013-02-19 21:10:00,
2013-02-19 15:15:00,-1.9,-14.6,30.47,East,99,5.0,12.0,54,0.00,,,0.00,VWS V14.01,2013-02-19 21:15:00,
2013-02-19 15:20:00,-1.7,-14.4,30.47,East,99,5.0,10.0,54,0.00,,,0.00,VWS V14.01,2013-02-19 21:20:00,
2013-02-19 15:25:00,-1.7,-14.4,30.48,East,91,5.0,10.0,54,0.00,,,0.00,VWS V14.01,2013-02-19 21:25:00,
2013-02-19 15:30:00,-1.9,-14.6,30.48,East,90,8.0,10.0,54,0.00,,,0.00,VWS V14.01,2013-02-19 21:30:00,
2013-02-19 15:35:00,-2.1,-15.1,30.48,East,84,3.0,10.0,53,0.00,,,0.00,VWS V14.01,2013-02-19 21:35:00,
2013-02-19 15:40:00,-1.9,-13.9,30.47,East,91,8.0,10.0,56,0.00,,,0.00,VWS V14.01,2013-02-19 21:40:00,
2013-02-19 15:45:00,-2.0,-13.9,30.47,East,97,7.0,10.0,56,0.00,,,0.00,VWS V14.01,2013-02-19 21:45:00,
2013-02-19 15:50:00,-2.2,-14.1,30.47,East,86,5.0,10.0,56,0.00,,,0.00,VWS V14.01,2013-02-19 21:50:00,
2013-02-19 15:55:00,-2.3,-14.2,30.47,East,83,7.0,13.0,56,0.00,,,0.00,VWS V14.01,2013-02-19 21:55:00,
2013-02-19 16:00:00,-2.5,-14.4,30.47,East,91,7.0,13.0,56,0.00,,,0.00,VWS V14.01,2013-02-19 22:00:00,
2013-02-19 16:05:00,-2.7,-14.3,30.48,East,88,5.0,10.0,57,0.00,,,0.00,VWS V14.01,2013-02-19 22:05:00,
2013-02-19 16:10:00,-2.8,-14.4,30.48,East,87,6.0,10.0,57,0.00,,,0.00,VWS V14.01,2013-02-19 22:10:00,
2013-02-19 16:15:00,-2.7,-14.3,30.48,East,84,6.0,10.0,57,0.00,,,0.00,VWS V14.01,2013-02-19 22:15:00,
2013-02-19 16:20:00,-2.7,-13.9,30.48,East,88,6.0,8.0,58,0.00,,,0.00,VWS V14.01,2013-02-19 22:20:00,
2013-02-19 16:25:00,-2.8,-14.0,30.48,East,88,7.0,10.0,58,0.00,,,0.00,VWS V14.01,2013-02-19 22:25:00,
2013-02-19 16:30:00,-3.0,-14.2,30.48,East,90,5.0,10.0,58,0.00,,,0.00,VWS V14.01,2013-02-19 22:30:00,
2013-02-19 16:35:00,-3.2,-14.4,30.47,East,86,5.0,9.0,58,0.00,,,0.00,VWS V14.01,2013-02-19 22:35:00,
2013-02-19 16:40:00,-3.4,-14.9,30.47,East,98,6.0,11.0,57,0.00,,,0.00,VWS V14.01,2013-02-19 22:40:00,
2013-02-19 16:45:00,-3.4,-14.2,30.47,East,101,7.0,11.0,59,0.00,,,0.00,VWS V14.01,2013-02-19 22:45:00,
2013-02-19 16:50:00,-3.6,-14.8,30.46,East,84,3.0,10.0,58,0.00,,,0.00,VWS V14.01,2013-02-19 22:50:00,
2013-02-19 16:55:00,-3.6,-14.4,30.46,East,86,7.0,10.0,59,0.00,,,0.00,VWS V14.01,2013-02-19 22:55:00,
2013-02-19 17:00:00,-3.6,-14.4,30.46,East,86,7.0,10.0,59,0.00,,,0.00,VWS V14.01,2013-02-19 23:00:00,
2013-02-19 17:05:00,-3.6,-14.4,30.46,East,86,7.0,7.0,59,0.00,,,0.00,VWS V14.01,2013-02-19 23:05:00,
2013-02-19 17:10:00,-3.6,-14.4,30.45,East,86,7.0,7.0,59,0.00,,,0.00,VWS V14.01,2013-02-19 23:10:00,
2013-02-19 17:15:00,-3.6,-14.4,30.45,East,86,7.0,7.0,59,0.00,,,0.00,VWS V14.01,2013-02-19 23:15:00,
2013-02-19 17:20:00,-3.6,-14.4,30.45,East,86,7.0,7.0,59,0.00,,,0.00,VWS V14.01,2013-02-19 23:20:00,
2013-02-19 17:25:00,-4.3,-14.1,30.45,East,92,3.0,9.0,62,0.00,,,0.00,VWS V14.01,2013-02-19 23:25:00,
2013-02-19 17:30:00,-4.3,-14.1,30.45,East,93,5.0,9.0,62,0.00,,,0.00,VWS V14.01,2013-02-19 23:30:00,
2013-02-19 17:35:00,-4.5,-14.0,30.45,ESE,107,5.0,10.0,63,0.00,,,0.00,VWS V14.01,2013-02-19 23:35:00,
2013-02-19 17:40:00,-4.7,-14.2,30.45,ESE,106,5.0,10.0,63,0.00,,,0.00,VWS V14.01,2013-02-19 23:40:00,
2013-02-19 17:45:00,-4.9,-14.4,30.46,ESE,103,4.0,10.0,63,0.00,,,0.00,VWS V14.01,2013-02-19 23:45:00,
2013-02-19 17:50:00,-5.0,-14.1,30.46,ESE,103,1.0,7.0,64,0.00,,,0.00,VWS V14.01,2013-02-19 23:50:00,
2013-02-19 17:55:00,-5.1,-14.2,30.46,ESE,103,4.0,7.0,64,0.00,,,0.00,VWS V14.01,2013-02-19 23:55:00,
2013-02-19 18:00:00,-5.2,-14.0,30.46,ESE,105,2.0,8.0,65,0.00,,,0.00,VWS V14.01,2013-02-20 00:00:00,
2013-02-19 18:05:00,-5.3,-14.1,30.46,ESE,106,3.0,9.0,65,0.00,,,0.00,VWS V14.01,2013-02-20 00:05:00,
2013-02-19 18:10:00,-5.3,-13.8,30.46,ESE,107,2.0,9.0,66,0.00,,,0.00,VWS V14.01,2013-02-20 00:10:00,
2013-02-19 18:15:00,-5.5,-14.0,30.46,ESE,107,2.0,9.0,66,0.00,,,0.00,VWS V14.01,2013-02-20 00:15:00,
2013-02-19 18:20:00,-5.7,-13.9,30.46,ESE,106,3.0,4.0,67,0.00,,,0.00,VWS V14.01,2013-02-20 00:20:00,
2013-02-19 18:25:00,-5.8,-14.0,30.45,East,99,7.0,8.0,67,0.00,,,0.00,VWS V14.01,2013-02-20 00:25:00,
2013-02-19 18:30:00,-5.9,-14.1,30.45,East,100,5.0,8.0,67,0.00,,,0.00,VWS V14.01,2013-02-20 00:30:00,
2013-02-19 18:35:00,-6.1,-14.3,30.45,East,97,3.0,8.0,67,0.00,,,0.00,VWS V14.01,2013-02-20 00:35:00,
2013-02-19 18:40:00,-6.2,-14.4,30.44,East,98,3.0,8.0,67,0.00,,,0.00,VWS V14.01,2013-02-20 00:40:00,
2013-02-19 18:45:00,-6.3,-14.5,30.44,East,99,3.0,8.0,67,0.00,,,0.00,VWS V14.01,2013-02-20 00:45:00,
2013-02-19 18:50:00,-6.4,-14.3,30.44,East,94,6.0,8.0,68,0.00,,,0.00,VWS V14.01,2013-02-20 00:50:00,
2013-02-19 18:55:00,-6.5,-14.4,30.45,East,99,3.0,8.0,68,0.00,,,0.00,VWS V14.01,2013-02-20 00:55:00,
2013-02-19 19:00:00,-6.6,-14.5,30.45,East,99,3.0,8.0,68,0.00,,,0.00,VWS V14.01,2013-02-20 01:00:00,
2013-02-19 19:05:00,-6.7,-14.3,30.45,East,99,5.0,6.0,69,0.00,,,0.00,VWS V14.01,2013-02-20 01:05:00,
2013-02-19 19:10:00,-6.8,-14.4,30.45,East,101,6.0,8.0,69,0.00,,,0.00,VWS V14.01,2013-02-20 01:10:00,
2013-02-19 19:15:00,-6.8,-14.4,30.45,ESE,103,3.0,8.0,69,0.00,,,0.00,VWS V14.01,2013-02-20 01:15:00,
2013-02-19 19:20:00,-6.7,-14.0,30.45,ESE,104,4.0,8.0,70,0.00,,,0.00,VWS V14.01,2013-02-20 01:20:00,
2013-02-19 19:25:00,-6.6,-13.9,30.45,ESE,105,3.0,8.0,70,0.00,,,0.00,VWS V14.01,2013-02-20 01:25:00,
2013-02-19 19:30:00,-6.6,-14.2,30.45,ESE,109,2.0,9.0,69,0.00,,,0.00,VWS V14.01,2013-02-20 01:30:00,
2013-02-19 19:35:00,-6.6,-13.9,30.46,ESE,109,4.0,7.0,70,0.00,,,0.00,VWS V14.01,2013-02-20 01:35:00,
2013-02-19 19:40:00,-6.7,-14.3,30.46,ESE,109,4.0,7.0,69,0.00,,,0.00,VWS V14.01,2013-02-20 01:40:00,
2013-02-19 19:45:00,-6.8,-14.4,30.46,ESE,109,2.0,7.0,69,0.00,,,0.00,VWS V14.01,2013-02-20 01:45:00,
2013-02-19 19:50:00,-6.8,-14.4,30.46,ESE,109,5.0,7.0,69,0.00,,,0.00,VWS V14.01,2013-02-20 01:50:00,
2013-02-19 19:55:00,-6.7,-14.0,30.46,ESE,110,2.0,7.0,70,0.00,,,0.00,VWS V14.01,2013-02-20 01:55:00,
2013-02-19 20:00:00,-6.7,-14.0,30.46,ESE,110,3.0,7.0,70,0.00,,,0.00,VWS V14.01,2013-02-20 02:00:00,
2013-02-19 20:05:00,-6.7,-14.0,30.46,ESE,110,2.0,4.0,70,0.00,,,0.00,VWS V14.01,2013-02-20 02:05:00,
2013-02-19 20:10:00,-6.7,-14.0,30.46,ESE,111,3.0,5.0,70,0.00,,,0.00,VWS V14.01,2013-02-20 02:10:00,
2013-02-19 20:15:00,-6.6,-13.9,30.45,ESE,107,1.0,5.0,70,0.00,,,0.00,VWS V14.01,2013-02-20 02:15:00,
2013-02-19 20:20:00,-6.6,-13.9,30.45,ESE,107,2.0,7.0,70,0.00,,,0.00,VWS V14.01,2013-02-20 02:20:00,
2013-02-19 20:25:00,-6.6,-13.9,30.45,ESE,105,4.0,7.0,70,0.00,,,0.00,VWS V14.01,2013-02-20 02:25:00,
2013-02-19 20:30:00,-6.7,-14.0,30.46,ESE,105,2.0,7.0,70,0.00,,,0.00,VWS V14.01,2013-02-20 02:30:00,
2013-02-19 20:35:00,-6.8,-14.1,30.46,ESE,102,2.0,8.0,70,0.00,,,0.00,VWS V14.01,2013-02-20 02:35:00,
2013-02-19 20:40:00,-6.8,-14.1,30.46,ESE,102,2.0,8.0,70,0.00,,,0.00,VWS V14.01,2013-02-20 02:40:00,
2013-02-19 20:45:00,-7.0,-14.3,30.46,ESE,102,1.0,8.0,70,0.00,,,0.00,VWS V14.01,2013-02-20 02:45:00,
2013-02-19 20:50:00,-7.1,-14.1,30.46,ESE,102,2.0,4.0,71,0.00,,,0.00,VWS V14.01,2013-02-20 02:50:00,
2013-02-19 20:55:00,-7.1,-14.1,30.47,ESE,102,2.0,5.0,71,0.00,,,0.00,VWS V14.01,2013-02-20 02:55:00,
2013-02-19 21:00:00,-7.1,-14.1,30.46,ESE,108,7.0,8.0,71,0.00,,,0.00,VWS V14.01,2013-02-20 03:00:00,
2013-02-19 21:05:00,-7.0,-14.0,30.46,ESE,114,5.0,9.0,71,0.00,,,0.00,VWS V14.01,2013-02-20 03:05:00,
2013-02-19 21:10:00,-7.0,-14.0,30.47,East,93,3.0,9.0,71,0.00,,,0.00,VWS V14.01,2013-02-20 03:10:00,
2013-02-19 21:15:00,-7.0,-14.0,30.47,ESE,109,3.0,10.0,71,0.00,,,0.00,VWS V14.01,2013-02-20 03:15:00,
2013-02-19 21:20:00,-7.1,-14.1,30.47,ESE,110,5.0,11.0,71,0.00,,,0.00,VWS V14.01,2013-02-20 03:20:00,
2013-02-19 21:25:00,-7.1,-14.1,30.47,ESE,117,5.0,11.0,71,0.00,,,0.00,VWS V14.01,2013-02-20 03:25:00,
2013-02-19 21:30:00,-7.2,-14.2,30.47,ESE,115,11.0,11.0,71,0.00,,,0.00,VWS V14.01,2013-02-20 03:30:00,
2013-02-19 21:35:00,-7.2,-14.2,30.47,ESE,113,8.0,10.0,71,0.00,,,0.00,VWS V14.01,2013-02-20 03:35:00,
2013-02-19 21:40:00,-7.2,-14.2,30.46,ESE,112,3.0,12.0,71,0.00,,,0.00,VWS V14.01,2013-02-20 03:40:00,
2013-02-19 21:45:00,-7.3,-14.3,30.47,East,92,8.0,12.0,71,0.00,,,0.00,VWS V14.01,2013-02-20 03:45:00,
2013-02-19 21:50:00,-7.3,-14.6,30.46,East,101,10.0,11.0,70,0.00,,,0.00,VWS V14.01,2013-02-20 03:50:00,
2013-02-19 21:55:00,-7.4,-14.7,30.46,ESE,107,9.0,11.0,70,0.00,,,0.00,VWS V14.01,2013-02-20 03:55:00,
2013-02-19 22:00:00,-7.5,-14.8,30.46,ESE,106,4.0,11.0,70,0.00,,,0.00,VWS V14.01,2013-02-20 04:00:00,
2013-02-19 22:05:00,-7.7,-14.9,30.46,ESE,109,4.0,10.0,70,0.00,,,0.00,VWS V14.01,2013-02-20 04:05:00,
2013-02-19 22:10:00,-7.7,-14.9,30.45,East,101,6.0,10.0,70,0.00,,,0.00,VWS V14.01,2013-02-20 04:10:00,
2013-02-19 22:15:00,-7.8,-15.1,30.46,ESE,110,3.0,11.0,70,0.00,,,0.00,VWS V14.01,2013-02-20 04:15:00,
2013-02-19 22:20:00,-7.9,-15.1,30.45,ESE,115,5.0,13.0,70,0.00,,,0.00,VWS V14.01,2013-02-20 04:20:00,
2013-02-19 22:25:00,-7.9,-15.1,30.45,ESE,106,5.0,13.0,70,0.00,,,0.00,VWS V14.01,2013-02-20 04:25:00,
2013-02-19 22:30:00,-8.0,-15.2,30.45,ESE,106,4.0,13.0,70,0.00,,,0.00,VWS V14.01,2013-02-20 04:30:00,
2013-02-19 22:35:00,-8.0,-15.2,30.45,ESE,119,18.0,18.0,70,0.00,,,0.00,VWS V14.01,2013-02-20 04:35:00,
2013-02-19 22:40:00,-8.0,-15.5,30.45,ESE,117,5.0,18.0,69,0.00,,,0.00,VWS V14.01,2013-02-20 04:40:00,
2013-02-19 22:45:00,-8.0,-15.5,30.45,ESE,114,10.0,18.0,69,0.00,,,0.00,VWS V14.01,2013-02-20 04:45:00,
2013-02-19 22:50:00,-8.1,-15.6,30.45,ESE,111,8.0,14.0,69,0.00,,,0.00,VWS V14.01,2013-02-20 04:50:00,
2013-02-19 22:55:00,-8.2,-15.7,30.45,East,100,5.0,14.0,69,0.00,,,0.00,VWS V14.01,2013-02-20 04:55:00,
2013-02-19 23:00:00,-8.1,-15.6,30.45,ESE,122,7.0,14.0,69,0.00,,,0.00,VWS V14.01,2013-02-20 05:00:00,
2013-02-19 23:05:00,-8.0,-15.8,30.45,ESE,118,7.0,12.0,68,0.00,,,0.00,VWS V14.01,2013-02-20 05:05:00,
2013-02-19 23:10:00,-8.0,-15.8,30.45,ESE,118,5.0,12.0,68,0.00,,,0.00,VWS V14.01,2013-02-20 05:10:00,
2013-02-19 23:15:00,-8.0,-15.8,30.45,ESE,118,5.0,12.0,68,0.00,,,0.00,VWS V14.01,2013-02-20 05:15:00,
2013-02-19 23:20:00,-8.1,-15.6,30.44,ESE,119,10.0,12.0,69,0.00,,,0.00,VWS V14.01,2013-02-20 05:20:00,
2013-02-19 23:25:00,-8.2,-15.7,30.44,ESE,104,8.0,14.0,69,0.00,,,0.00,VWS V14.01,2013-02-20 05:25:00,
2013-02-19 23:30:00,-8.2,-15.7,30.43,ESE,115,4.0,15.0,69,0.00,,,0.00,VWS V14.01,2013-02-20 05:30:00,
2013-02-19 23:35:00,-8.3,-15.8,30.43,ESE,112,12.0,12.0,69,0.00,,,0.00,VWS V14.01,2013-02-20 05:35:00,
2013-02-19 23:40:00,-8.4,-15.6,30.44,ESE,119,5.0,15.0,70,0.00,,,0.00,VWS V14.01,2013-02-20 05:40:00,
2013-02-19 23:45:00,-8.4,-15.6,30.44,SE,128,6.0,15.0,70,0.00,,,0.00,VWS V14.01,2013-02-20 05:45:00,
2013-02-19 23:50:00,-8.5,-15.7,30.44,ESE,121,7.0,15.0,70,0.00,,,0.00,VWS V14.01,2013-02-20 05:50:00,
2013-02-19 23:55:00,-8.4,-15.6,30.44,SE,125,5.0,15.0,70,0.00,,,0.00,VWS V14.01,2013-02-20 05:55:00,